When you browse on this site, cookies collect data to enhance your experience and personalize the content and advertising you see.
Visit our Privacy Policy to learn more. By continuing to use the site, you agree to this use of cookies and data.
  • en Suisse
  • Liste des pays
  • À 7 jours
  • Température de l'eau
  • Carte météo
  • Widgets météo
  • user-avatar
    Se connecter

    Météo par heure à Zybovka

    Ce jour, 4 Juin, Jeudi

    Heure Température Précipitation Vent Pression Humidité
    00:00 +13°C° 0.8 mm 3 m/s 735 mmHg 97%
    01:00 +12°C° 0 mm 3 m/s 735 mmHg 97%
    02:00 +12°C° 0 mm 3 m/s 736 mmHg 96%
    03:00 +11°C° 0 mm 3 m/s 736 mmHg 96%
    04:00 +11°C° 0 mm 3 m/s 736 mmHg 96%
    05:00 +12°C° 0 mm 3 m/s 736 mmHg 95%
    06:00 +12°C° 0 mm 3 m/s 737 mmHg 95%
    07:00 +13°C° 0 mm 3 m/s 737 mmHg 91%
    08:00 +14°C° 0 mm 3 m/s 737 mmHg 87%
    09:00 +17°C° 0 mm 3 m/s 737 mmHg 83%
    10:00 +18°C° 0.1 mm 3 m/s 737 mmHg 80%
    11:00 +18°C° 0.1 mm 4 m/s 737 mmHg 76%
    12:00 +19°C° 0.1 mm 4 m/s 737 mmHg 73%
    13:00 +19°C° 0.8 mm 5 m/s 737 mmHg 73%
    14:00 +19°C° 0.8 mm 5 m/s 737 mmHg 73%
    15:00 +19°C° 0.8 mm 6 m/s 738 mmHg 74%
    16:00 +19°C° 0.1 mm 6 m/s 738 mmHg 75%
    17:00 +17°C° 0.1 mm 6 m/s 738 mmHg 77%
    18:00 +16°C° 0.1 mm 6 m/s 738 mmHg 79%
    19:00 +15°C° 0 mm 5 m/s 738 mmHg 83%
    20:00 +14°C° 0 mm 4 m/s 739 mmHg 87%
    21:00 +12°C° 0 mm 3 m/s 739 mmHg 90%
    22:00 +12°C° 0 mm 3 m/s 739 mmHg 92%
    23:00 +12°C° 0 mm 3 m/s 740 mmHg 93%

    Demain, 5 Juin, Vendredi

    Heure Température Précipitation Vent Pression Humidité
    00:00 +11°C° 0 mm 4 m/s 740 mmHg 94%
    01:00 +11°C° 0 mm 4 m/s 740 mmHg 94%
    02:00 +11°C° 0 mm 4 m/s 741 mmHg 95%
    03:00 +11°C° 0 mm 4 m/s 741 mmHg 95%
    04:00 +11°C° 0 mm 4 m/s 741 mmHg 93%
    05:00 +12°C° 0 mm 4 m/s 741 mmHg 91%
    06:00 +12°C° 0 mm 4 m/s 741 mmHg 90%
    07:00 +13°C° 0.1 mm 5 m/s 741 mmHg 86%
    08:00 +15°C° 0.1 mm 6 m/s 742 mmHg 83%
    09:00 +16°C° 0.1 mm 6 m/s 742 mmHg 79%
    10:00 +17°C° 0.2 mm 7 m/s 742 mmHg 75%
    11:00 +18°C° 0.2 mm 7 m/s 742 mmHg 72%
    12:00 +18°C° 0.2 mm 8 m/s 742 mmHg 68%
    13:00 +18°C° 0.2 mm 7 m/s 742 mmHg 70%
    14:00 +18°C° 0.2 mm 7 m/s 742 mmHg 71%
    15:00 +18°C° 0.2 mm 7 m/s 742 mmHg 72%
    16:00 +16°C° 1.2 mm 6 m/s 742 mmHg 79%
    17:00 +15°C° 1.2 mm 5 m/s 742 mmHg 86%
    18:00 +13°C° 1.2 mm 4 m/s 741 mmHg 92%
    19:00 +13°C° 0.5 mm 4 m/s 742 mmHg 93%
    20:00 +12°C° 0.5 mm 3 m/s 742 mmHg 94%
    21:00 +12°C° 0.5 mm 3 m/s 742 mmHg 95%
    22:00 +12°C° 0 mm 2 m/s 742 mmHg 96%
    23:00 +12°C° 0 mm 2 m/s 742 mmHg 97%

    Après-demain, 6 Juin, Samedi

    Heure Température Précipitation Vent Pression Humidité
    00:00 +12°C° 0 mm 2 m/s 742 mmHg 98%
    01:00 +12°C° 0 mm 1 m/s 742 mmHg 98%
    02:00 +12°C° 0 mm 1 m/s 742 mmHg 97%
    03:00 +12°C° 0 mm 1 m/s 743 mmHg 97%
    04:00 +12°C° 0 mm 1 m/s 743 mmHg 97%
    05:00 +12°C° 0 mm 1 m/s 743 mmHg 96%
    06:00 +13°C° 0 mm 2 m/s 743 mmHg 96%
    07:00 +14°C° 0 mm 2 m/s 743 mmHg 92%
    08:00 +16°C° 0 mm 2 m/s 744 mmHg 88%
    09:00 +18°C° 0 mm 2 m/s 744 mmHg 85%
    10:00 +19°C° 0 mm 2 m/s 744 mmHg 83%
    11:00 +20°C° 0 mm 3 m/s 744 mmHg 81%
    12:00 +21°C° 0 mm 3 m/s 744 mmHg 79%
    13:00 +22°C° 0.2 mm 3 m/s 744 mmHg 78%
    14:00 +23°C° 0.2 mm 4 m/s 745 mmHg 76%
    15:00 +25°C° 0.2 mm 4 m/s 745 mmHg 74%
    16:00 +24°C° 0.6 mm 3 m/s 745 mmHg 77%
    17:00 +24°C° 0.6 mm 3 m/s 744 mmHg 80%
    18:00 +24°C° 0.6 mm 3 m/s 744 mmHg 83%
    19:00 +22°C° 0.2 mm 3 m/s 745 mmHg 87%
    20:00 +20°C° 0.2 mm 3 m/s 745 mmHg 90%
    21:00 +19°C° 0.2 mm 3 m/s 745 mmHg 94%
    22:00 +19°C° 0 mm 3 m/s 745 mmHg 94%
    23:00 +19°C° 0 mm 3 m/s 746 mmHg 95%

    7 Juin, Dimanche

    Heure Température Précipitation Vent Pression Humidité
    00:00 +18°C° 0 mm 3 m/s 746 mmHg 95%
    01:00 +18°C° 0 mm 3 m/s 746 mmHg 95%
    02:00 +17°C° 0 mm 3 m/s 746 mmHg 95%
    03:00 +17°C° 0 mm 3 m/s 746 mmHg 94%
    04:00 +17°C° 0 mm 3 m/s 746 mmHg 94%
    05:00 +17°C° 0 mm 3 m/s 747 mmHg 93%
    06:00 +18°C° 0 mm 3 m/s 747 mmHg 93%
    07:00 +19°C° 0 mm 3 m/s 747 mmHg 90%
    08:00 +20°C° 0 mm 3 m/s 747 mmHg 87%
    09:00 +22°C° 0 mm 3 m/s 748 mmHg 84%
    10:00 +23°C° 0 mm 4 m/s 748 mmHg 79%
    11:00 +25°C° 0 mm 4 m/s 748 mmHg 74%
    12:00 +26°C° 0 mm 4 m/s 748 mmHg 69%
    13:00 +26°C° 0 mm 4 m/s 748 mmHg 68%
    14:00 +27°C° 0 mm 4 m/s 748 mmHg 67%
    15:00 +27°C° 0 mm 4 m/s 748 mmHg 66%
    16:00 +27°C° 0 mm 3 m/s 748 mmHg 69%
    17:00 +27°C° 0 mm 3 m/s 748 mmHg 73%
    18:00 +26°C° 0 mm 2 m/s 748 mmHg 76%
    19:00 +25°C° 0 mm 2 m/s 748 mmHg 80%
    20:00 +23°C° 0 mm 2 m/s 748 mmHg 83%
    21:00 +21°C° 0 mm 2 m/s 748 mmHg 86%
    22:00 +20°C° 0 mm 2 m/s 748 mmHg 88%
    23:00 +20°C° 0 mm 2 m/s 748 mmHg 89%

    8 Juin, Lundi

    Heure Température Précipitation Vent Pression Humidité
    00:00 +19°C° 0 mm 2 m/s 749 mmHg 91%
    01:00 +19°C° 0 mm 2 m/s 749 mmHg 91%
    02:00 +19°C° 0 mm 1 m/s 749 mmHg 91%
    03:00 +19°C° 0 mm 1 m/s 749 mmHg 91%
    04:00 +19°C° 0 mm 1 m/s 749 mmHg 89%
    05:00 +20°C° 0 mm 1 m/s 749 mmHg 88%
    06:00 +20°C° 0 mm 1 m/s 749 mmHg 86%
    07:00 +22°C° 0 mm 1 m/s 749 mmHg 82%
    08:00 +23°C° 0 mm 2 m/s 749 mmHg 78%
    09:00 +24°C° 0 mm 2 m/s 749 mmHg 75%
    10:00 +25°C° 0 mm 2 m/s 749 mmHg 71%
    11:00 +26°C° 0 mm 2 m/s 749 mmHg 68%
    12:00 +27°C° 0 mm 3 m/s 749 mmHg 65%
    13:00 +27°C° 0 mm 3 m/s 749 mmHg 64%
    14:00 +28°C° 0 mm 3 m/s 749 mmHg 64%
    15:00 +28°C° 0 mm 3 m/s 748 mmHg 63%
    16:00 +28°C° 0.3 mm 2 m/s 748 mmHg 67%
    17:00 +27°C° 0.3 mm 2 m/s 748 mmHg 72%
    18:00 +27°C° 0.3 mm 2 m/s 748 mmHg 76%
    19:00 +25°C° 0 mm 2 m/s 748 mmHg 78%
    20:00 +24°C° 0 mm 2 m/s 748 mmHg 81%
    21:00 +22°C° 0 mm 1 m/s 748 mmHg 83%
    22:00 +21°C° 0 mm 2 m/s 748 mmHg 85%
    23:00 +20°C° 0 mm 2 m/s 748 mmHg 86%

    9 Juin, Mardi

    Heure Température Précipitation Vent Pression Humidité
    00:00 +20°C° 0 mm 2 m/s 748 mmHg 88%
    01:00 +19°C° 0 mm 2 m/s 749 mmHg 88%
    02:00 +19°C° 0 mm 2 m/s 749 mmHg 89%
    03:00 +20°C° 0 mm 1 m/s 749 mmHg 89%
    04:00 +20°C° 0 mm 1 m/s 749 mmHg 89%
    05:00 +21°C° 0 mm 1 m/s 749 mmHg 88%
    06:00 +21°C° 0 mm 1 m/s 749 mmHg 88%
    07:00 +23°C° 0 mm 2 m/s 749 mmHg 84%
    08:00 +24°C° 0 mm 2 m/s 749 mmHg 80%
    09:00 +25°C° 0 mm 2 m/s 749 mmHg 75%
    10:00 +26°C° 0 mm 2 m/s 750 mmHg 72%
    11:00 +27°C° 0 mm 3 m/s 750 mmHg 69%
    12:00 +28°C° 0 mm 3 m/s 750 mmHg 65%
    13:00 +28°C° 0 mm 3 m/s 749 mmHg 64%
    14:00 +28°C° 0 mm 2 m/s 749 mmHg 63%
    15:00 +29°C° 0 mm 2 m/s 749 mmHg 62%
    16:00 +28°C° 0.1 mm 2 m/s 749 mmHg 67%
    17:00 +28°C° 0.1 mm 2 m/s 749 mmHg 72%
    18:00 +28°C° 0.1 mm 2 m/s 749 mmHg 76%
    19:00 +26°C° 0.2 mm 2 m/s 749 mmHg 81%
    20:00 +25°C° 0.2 mm 2 m/s 749 mmHg 86%
    21:00 +23°C° 0.2 mm 2 m/s 749 mmHg 91%
    22:00 +23°C° 0 mm 2 m/s 749 mmHg 92%
    23:00 +21°C° 0 mm 2 m/s 749 mmHg 93%
    Voir plus